BAW918 EGLL-EDDL

Flight info

Callsign BAW918
Flight time 0h 56m
Altitude 33000
Route DCT BPK Q295 BRAIN M197 REDFA L620 PAM P62 PISAP DCT
Aircraft A320/M-SDE3FGIJ1KRWXY/SB1

Departure

Time 2026-05-06 06:34
Airport London Heathrow Airport (EGLL)

Arrival

Time 2026-05-06 07:31
Airport Düsseldorf Airport (EDDL)
Time Latitude Longitude Altitude Speed Heading
2026-05-06 06:06 51.47134 -0.48610 90 ft 0 kts 269°
2026-05-06 06:25 51.47134 -0.48581 87 ft 4 kts 269°
2026-05-06 06:26 51.47134 -0.48538 90 ft 4 kts 269°
2026-05-06 06:26 51.47135 -0.48504 90 ft 4 kts 252°
2026-05-06 06:26 51.47148 -0.48475 90 ft 4 kts 193°
2026-05-06 06:26 51.47171 -0.48472 89 ft 2 kts 179°
2026-05-06 06:27 51.47173 -0.48472 88 ft 0 kts 179°
2026-05-06 06:30 51.47171 -0.48472 89 ft 2 kts 179°
2026-05-06 06:30 51.47143 -0.48472 90 ft 8 kts 179°
2026-05-06 06:30 51.47071 -0.48471 86 ft 12 kts 179°
2026-05-06 06:30 51.46977 -0.48470 89 ft 15 kts 179°
2026-05-06 06:31 51.46867 -0.48468 86 ft 17 kts 179°
2026-05-06 06:31 51.46740 -0.48467 86 ft 19 kts 179°
2026-05-06 06:31 51.46623 -0.48468 86 ft 8 kts 181°
2026-05-06 06:31 51.46584 -0.48468 86 ft 0 kts 180°
2026-05-06 06:32 51.46572 -0.48468 86 ft 3 kts 180°
2026-05-06 06:32 51.46536 -0.48468 86 ft 7 kts 180°
2026-05-06 06:32 51.46488 -0.48444 87 ft 8 kts 133°
2026-05-06 06:32 51.46479 -0.48348 87 ft 9 kts 89°
2026-05-06 06:33 51.46480 -0.48313 88 ft 0 kts 89°
2026-05-06 06:33 51.46481 -0.48204 88 ft 34 kts 89°
2026-05-06 06:33 51.46484 -0.47429 88 ft 101 kts 89°
2026-05-06 06:33 51.46487 -0.46024 86 ft 149 kts 90°
2026-05-06 06:34 51.46507 -0.44218 416 ft 163 kts 85°
2026-05-06 06:34 51.46530 -0.42393 1119 ft 163 kts 83°
2026-05-06 06:34 51.46860 -0.40645 1574 ft 173 kts 54°
2026-05-06 06:34 51.47697 -0.39095 1814 ft 198 kts 47°
2026-05-06 06:35 51.48659 -0.37299 2145 ft 225 kts 49°
2026-05-06 06:35 51.49701 -0.35306 2808 ft 238 kts 48°
2026-05-06 06:35 51.50776 -0.33234 3665 ft 245 kts 47°
2026-05-06 06:35 51.51869 -0.31089 4500 ft 252 kts 51°
2026-05-06 06:36 51.52645 -0.28497 5317 ft 264 kts 68°
2026-05-06 06:36 51.53240 -0.25678 6172 ft 269 kts 68°
2026-05-06 06:36 51.54031 -0.22948 6955 ft 271 kts 52°
2026-05-06 06:36 51.55335 -0.20787 7797 ft 271 kts 33°
2026-05-06 06:37 51.57018 -0.19435 8646 ft 272 kts 19°
2026-05-06 06:37 51.58789 -0.18290 9482 ft 276 kts 19°
2026-05-06 06:37 51.60627 -0.17358 10217 ft 281 kts 15°
2026-05-06 06:37 51.62581 -0.16429 10481 ft 304 kts 15°
2026-05-06 06:38 51.64685 -0.15438 10715 ft 325 kts 15°
2026-05-06 06:38 51.66888 -0.14410 11248 ft 333 kts 15°
2026-05-06 06:38 51.69134 -0.13369 11939 ft 337 kts 14°
2026-05-06 06:38 51.71327 -0.11975 12610 ft 344 kts 28°
2026-05-06 06:39 51.73252 -0.09635 13246 ft 351 kts 44°
2026-05-06 06:39 51.74727 -0.06467 13877 ft 358 kts 60°
2026-05-06 06:39 51.75614 -0.02688 14449 ft 364 kts 76°
2026-05-06 06:39 51.75998 0.01376 14964 ft 370 kts 81°
2026-05-06 06:40 51.76340 0.05508 15526 ft 374 kts 82°
2026-05-06 06:40 51.76681 0.09685 16113 ft 377 kts 82°
2026-05-06 06:40 51.77022 0.13905 16659 ft 381 kts 82°
2026-05-06 06:40 51.77367 0.18166 17253 ft 384 kts 82°
2026-05-06 06:41 51.77717 0.22464 17829 ft 388 kts 82°
2026-05-06 06:41 51.78073 0.26801 18388 ft 391 kts 82°
2026-05-06 06:41 51.78433 0.31178 18908 ft 395 kts 82°
2026-05-06 06:41 51.78790 0.35587 19427 ft 398 kts 82°
2026-05-06 06:42 51.79146 0.40037 19960 ft 401 kts 83°
2026-05-06 06:42 51.79499 0.44512 20481 ft 404 kts 83°
2026-05-06 06:42 51.79852 0.49035 20980 ft 407 kts 83°
2026-05-06 06:42 51.80205 0.53575 21504 ft 408 kts 83°
2026-05-06 06:43 51.80559 0.58143 21976 ft 411 kts 83°
2026-05-06 06:43 51.80919 0.62739 22441 ft 414 kts 83°
2026-05-06 06:43 51.81441 0.67341 22863 ft 419 kts 76°
2026-05-06 06:43 51.82157 0.71921 23322 ft 422 kts 77°
2026-05-06 06:44 51.82872 0.76536 23736 ft 425 kts 77°
2026-05-06 06:44 51.83577 0.81119 24119 ft 427 kts 77°
2026-05-06 06:44 51.84331 0.85781 24505 ft 430 kts 75°
2026-05-06 06:44 51.85154 0.90437 24887 ft 432 kts 74°
2026-05-06 06:45 51.86023 0.95108 25268 ft 435 kts 73°
2026-05-06 06:45 51.86913 0.99789 25655 ft 436 kts 73°
2026-05-06 06:45 51.87802 1.04481 26083 ft 437 kts 74°
2026-05-06 06:45 51.88680 1.09195 26454 ft 439 kts 74°
2026-05-06 06:46 51.89548 1.13948 26823 ft 441 kts 74°
2026-05-06 06:46 51.90406 1.18729 27190 ft 443 kts 75°
2026-05-06 06:46 51.91263 1.23533 27557 ft 445 kts 75°
2026-05-06 06:46 51.92122 1.28367 27930 ft 447 kts 75°
2026-05-06 06:47 51.92982 1.33225 28296 ft 450 kts 75°
2026-05-06 06:47 51.93848 1.38117 28651 ft 452 kts 75°
2026-05-06 06:47 51.94718 1.43025 28991 ft 454 kts 75°
2026-05-06 06:47 51.95580 1.47892 29312 ft 456 kts 75°
2026-05-06 06:48 51.96459 1.52854 29642 ft 459 kts 75°
2026-05-06 06:48 51.97334 1.57819 30146 ft 457 kts 75°
2026-05-06 06:48 51.98201 1.62771 30553 ft 456 kts 75°
2026-05-06 06:48 51.99064 1.67717 31008 ft 454 kts 75°
2026-05-06 06:49 51.99903 1.72671 31393 ft 454 kts 76°
2026-05-06 06:49 52.00691 1.77627 31839 ft 453 kts 76°
2026-05-06 06:49 52.01449 1.82592 32239 ft 453 kts 76°
2026-05-06 06:49 52.02190 1.87548 32707 ft 451 kts 77°
2026-05-06 06:50 52.02931 1.92494 32900 ft 452 kts 76°
2026-05-06 06:50 52.04437 2.02397 32937 ft 452 kts 77°
2026-05-06 06:51 52.05956 2.12305 32936 ft 452 kts 77°
2026-05-06 06:51 52.07477 2.22213 32930 ft 451 kts 77°
2026-05-06 06:52 52.08972 2.32062 32933 ft 451 kts 77°
2026-05-06 06:52 52.10465 2.42014 32944 ft 453 kts 77°
2026-05-06 06:53 52.11987 2.51960 32942 ft 453 kts 76°
2026-05-06 06:53 52.13808 2.61758 32949 ft 452 kts 73°
2026-05-06 06:54 52.15759 2.71480 32945 ft 451 kts 73°
2026-05-06 06:54 52.17653 2.81216 32944 ft 450 kts 73°
2026-05-06 06:55 52.19487 2.90985 32938 ft 450 kts 74°
2026-05-06 06:55 52.21299 3.00750 32929 ft 450 kts 74°
2026-05-06 06:56 52.23106 3.10508 32946 ft 448 kts 74°
2026-05-06 06:56 52.24899 3.20243 32933 ft 448 kts 73°
2026-05-06 06:57 52.26685 3.29925 32915 ft 449 kts 74°
2026-05-06 06:57 52.28479 3.39686 32905 ft 449 kts 75°
2026-05-06 06:58 52.30257 3.49477 32898 ft 449 kts 75°
2026-05-06 06:58 52.32024 3.59254 32906 ft 448 kts 75°
2026-05-06 06:59 52.33790 3.69016 32922 ft 447 kts 75°
2026-05-06 06:59 52.35539 3.78774 32912 ft 447 kts 75°
2026-05-06 07:00 52.36666 3.88718 32917 ft 444 kts 90°
2026-05-06 07:00 52.36489 3.98793 32891 ft 443 kts 93°
2026-05-06 07:01 52.36260 4.08857 32894 ft 443 kts 94°
2026-05-06 07:01 52.36026 4.18920 32878 ft 443 kts 94°
2026-05-06 07:02 52.35787 4.28973 32883 ft 443 kts 94°
2026-05-06 07:02 52.35531 4.39038 32871 ft 442 kts 94°
2026-05-06 07:03 52.35261 4.49084 32865 ft 442 kts 94°
2026-05-06 07:03 52.34985 4.59142 32860 ft 442 kts 94°
2026-05-06 07:04 52.34704 4.69200 32864 ft 443 kts 95°
2026-05-06 07:04 52.34406 4.79250 32864 ft 442 kts 94°
2026-05-06 07:05 52.34105 4.89243 32861 ft 443 kts 94°
2026-05-06 07:05 52.33790 4.99293 32864 ft 442 kts 94°
2026-05-06 07:06 52.33092 5.09238 32874 ft 438 kts 107°
2026-05-06 07:06 52.30843 5.18418 32781 ft 436 kts 117°
2026-05-06 07:06 52.29555 5.22898 32501 ft 435 kts 117°
2026-05-06 07:07 52.28271 5.27369 32240 ft 435 kts 117°
2026-05-06 07:07 52.26984 5.31845 31978 ft 435 kts 117°
2026-05-06 07:07 52.25690 5.36317 31711 ft 435 kts 117°
2026-05-06 07:07 52.24393 5.40784 31450 ft 436 kts 117°
2026-05-06 07:08 52.23112 5.45195 31191 ft 433 kts 117°
2026-05-06 07:08 52.21831 5.49612 30936 ft 429 kts 117°
2026-05-06 07:08 52.20562 5.53990 30681 ft 425 kts 117°
2026-05-06 07:08 52.19303 5.58328 30430 ft 422 kts 117°
2026-05-06 07:09 52.18047 5.62636 30166 ft 419 kts 117°
2026-05-06 07:09 52.16795 5.66923 29915 ft 417 kts 117°
2026-05-06 07:09 52.15551 5.71165 29628 ft 414 kts 117°
2026-05-06 07:09 52.14307 5.75392 29336 ft 413 kts 116°
2026-05-06 07:10 52.13078 5.79579 28914 ft 407 kts 116°
2026-05-06 07:10 52.11864 5.83719 28382 ft 403 kts 116°
2026-05-06 07:10 52.10661 5.87811 27867 ft 398 kts 116°
2026-05-06 07:10 52.09469 5.91859 27369 ft 395 kts 116°
2026-05-06 07:11 52.08288 5.95864 26851 ft 392 kts 116°
2026-05-06 07:11 52.07111 5.99844 26353 ft 389 kts 116°
2026-05-06 07:11 52.05955 6.03744 25865 ft 386 kts 117°
2026-05-06 07:11 52.04787 6.07674 25377 ft 385 kts 116°
2026-05-06 07:12 52.03624 6.11576 24908 ft 383 kts 117°
2026-05-06 07:12 52.02466 6.15461 24438 ft 382 kts 116°
2026-05-06 07:12 52.01315 6.19334 23982 ft 380 kts 116°
2026-05-06 07:12 52.00163 6.23194 23537 ft 379 kts 117°
2026-05-06 07:13 51.99014 6.27033 23036 ft 377 kts 117°
2026-05-06 07:13 51.97877 6.30829 22605 ft 372 kts 117°
2026-05-06 07:13 51.97128 6.33322 22323 ft 369 kts 117°
2026-05-06 07:13 51.96006 6.37043 21882 ft 365 kts 117°
2026-05-06 07:14 51.94896 6.40716 21453 ft 361 kts 117°
2026-05-06 07:14 51.93795 6.44347 21019 ft 357 kts 117°
2026-05-06 07:14 51.92702 6.47944 20576 ft 354 kts 117°
2026-05-06 07:14 51.91617 6.51505 20144 ft 351 kts 119°
2026-05-06 07:15 51.90306 6.54819 19692 ft 347 kts 130°
2026-05-06 07:15 51.88643 6.57614 19257 ft 344 kts 141°
2026-05-06 07:15 51.86683 6.59825 18788 ft 343 kts 152°
2026-05-06 07:15 51.84503 6.61363 18323 ft 342 kts 162°
2026-05-06 07:16 51.82239 6.62532 17818 ft 342 kts 162°
2026-05-06 07:16 51.79975 6.63696 17335 ft 340 kts 164°
2026-05-06 07:16 51.77665 6.64427 16866 ft 338 kts 172°
2026-05-06 07:16 51.75339 6.64945 16400 ft 336 kts 172°
2026-05-06 07:17 51.73026 6.65458 15933 ft 335 kts 172°
2026-05-06 07:17 51.70723 6.65968 15460 ft 333 kts 171°
2026-05-06 07:17 51.68427 6.66478 14994 ft 332 kts 171°
2026-05-06 07:17 51.66139 6.66991 14534 ft 331 kts 171°
2026-05-06 07:18 51.63856 6.67504 14068 ft 331 kts 172°
2026-05-06 07:18 51.61575 6.68016 13591 ft 331 kts 173°
2026-05-06 07:18 51.59319 6.68523 13094 ft 331 kts 173°
2026-05-06 07:18 51.57041 6.69031 12618 ft 330 kts 173°
2026-05-06 07:19 51.54763 6.69535 12145 ft 330 kts 173°
2026-05-06 07:19 51.52489 6.70039 11678 ft 329 kts 173°
2026-05-06 07:19 51.50228 6.70539 11186 ft 327 kts 173°
2026-05-06 07:19 51.47980 6.71031 10716 ft 325 kts 173°
2026-05-06 07:20 51.45741 6.71522 10250 ft 324 kts 172°
2026-05-06 07:20 51.43542 6.72011 10085 ft 313 kts 172°
2026-05-06 07:20 51.41424 6.72484 9964 ft 302 kts 173°
2026-05-06 07:20 51.39380 6.72940 9831 ft 292 kts 173°
2026-05-06 07:21 51.37393 6.73380 9626 ft 286 kts 174°
2026-05-06 07:21 51.35430 6.73812 9175 ft 287 kts 174°
2026-05-06 07:21 51.33466 6.74242 8891 ft 282 kts 174°
2026-05-06 07:21 51.31534 6.74571 8284 ft 278 kts 183°
2026-05-06 07:22 51.29675 6.73911 7653 ft 274 kts 206°
2026-05-06 07:22 51.28147 6.72162 7033 ft 271 kts 228°
2026-05-06 07:22 51.27173 6.69602 6431 ft 271 kts 250°
2026-05-06 07:22 51.26609 6.66741 5878 ft 272 kts 254°
2026-05-06 07:23 51.26040 6.63831 5342 ft 278 kts 253°
2026-05-06 07:23 51.25460 6.60902 5019 ft 276 kts 254°
2026-05-06 07:23 51.24875 6.57964 4716 ft 276 kts 253°
2026-05-06 07:23 51.24292 6.55053 4336 ft 275 kts 254°
2026-05-06 07:24 51.23724 6.52220 4112 ft 261 kts 253°
2026-05-06 07:24 51.23187 6.49549 3993 ft 243 kts 253°
2026-05-06 07:24 51.22524 6.47223 3918 ft 228 kts 231°
2026-05-06 07:24 51.21343 6.45687 3860 ft 212 kts 204°
2026-05-06 07:25 51.19932 6.45213 3807 ft 208 kts 176°
2026-05-06 07:25 51.18547 6.45792 3759 ft 206 kts 148°
2026-05-06 07:25 51.17540 6.47351 3707 ft 203 kts 117°
2026-05-06 07:25 51.17082 6.49449 3660 ft 200 kts 95°
2026-05-06 07:26 51.17123 6.51641 3606 ft 197 kts 75°
2026-05-06 07:26 51.17628 6.53611 3536 ft 187 kts 55°
2026-05-06 07:26 51.18388 6.55225 3316 ft 178 kts 51°
2026-05-06 07:26 51.19130 6.56764 3096 ft 173 kts 51°
2026-05-06 07:27 51.19858 6.58275 2867 ft 171 kts 49°
2026-05-06 07:27 51.20574 6.59768 2638 ft 168 kts 50°
2026-05-06 07:27 51.21276 6.61229 2417 ft 164 kts 50°
2026-05-06 07:27 51.21966 6.62668 2191 ft 162 kts 51°
2026-05-06 07:28 51.22645 6.64084 1956 ft 158 kts 50°
2026-05-06 07:28 51.23290 6.65432 1767 ft 147 kts 51°
2026-05-06 07:28 51.24479 6.67914 1378 ft 140 kts 52°
2026-05-06 07:29 51.25076 6.69161 1186 ft 141 kts 50°
2026-05-06 07:29 51.25670 6.70402 976 ft 140 kts 50°
2026-05-06 07:29 51.26262 6.71629 767 ft 140 kts 49°
2026-05-06 07:29 51.26850 6.72868 589 ft 140 kts 51°
2026-05-06 07:30 51.27433 6.74100 401 ft 138 kts 51°
2026-05-06 07:30 51.28019 6.75325 204 ft 138 kts 49°
2026-05-06 07:30 51.28580 6.76490 126 ft 118 kts 52°
2026-05-06 07:30 51.28969 6.77315 127 ft 68 kts 53°
2026-05-06 07:31 51.29159 6.77711 135 ft 25 kts 54°
2026-05-06 07:31 51.29217 6.77839 137 ft 12 kts 53°
2026-05-06 07:31 51.29266 6.77939 140 ft 10 kts 52°
2026-05-06 07:31 51.29294 6.78024 142 ft 8 kts 76°
2026-05-06 07:32 51.29294 6.78105 142 ft 7 kts 103°
2026-05-06 07:32 51.29260 6.78187 139 ft 11 kts 139°
2026-05-06 07:32 51.29183 6.78207 137 ft 12 kts 193°
2026-05-06 07:32 51.29131 6.78130 134 ft 12 kts 238°
2026-05-06 07:33 51.29076 6.78011 129 ft 14 kts 232°
2026-05-06 07:33 51.29014 6.77883 128 ft 15 kts 233°
2026-05-06 07:33 51.28953 6.77754 128 ft 15 kts 232°
2026-05-06 07:33 51.28889 6.77617 128 ft 16 kts 233°
2026-05-06 07:34 51.28821 6.77473 128 ft 16 kts 233°
2026-05-06 07:34 51.28751 6.77326 124 ft 17 kts 233°
2026-05-06 07:34 51.28678 6.77172 124 ft 20 kts 233°
2026-05-06 07:34 51.28587 6.76981 128 ft 23 kts 232°
2026-05-06 07:35 51.28480 6.76758 122 ft 28 kts 233°
2026-05-06 07:35 51.28364 6.76512 121 ft 27 kts 233°
2026-05-06 07:35 51.28256 6.76286 124 ft 23 kts 232°
2026-05-06 07:35 51.28166 6.76096 128 ft 12 kts 231°
2026-05-06 07:36 51.28113 6.76028 128 ft 8 kts 185°
2026-05-06 07:36 51.28054 6.76048 126 ft 10 kts 181°
2026-05-06 07:36 51.27974 6.76047 127 ft 13 kts 178°
2026-05-06 07:36 51.27877 6.76048 130 ft 15 kts 181°
2026-05-06 07:37 51.27768 6.76043 128 ft 17 kts 181°
2026-05-06 07:37 51.27659 6.76039 129 ft 10 kts 181°
2026-05-06 07:37 51.27588 6.76071 128 ft 10 kts 150°
2026-05-06 07:37 51.27554 6.76124 130 ft 6 kts 89°
2026-05-06 07:38 51.27584 6.76161 130 ft 6 kts 38°
2026-05-06 07:38 51.27607 6.76196 127 ft 3 kts 44°
2026-05-06 07:38 51.27610 6.76201 126 ft 0 kts 44°